Flag for Austria Weather past 2 weeks in Fürstenfeld, Styria, Austria

Now
57 °F

Cool.


Feels Like: 57 °F
Forecast: 52 / 63 °F
Wind: 1 mph from Northeast

Location: Murska Sobota

Current Time: Oct 21, 2014 at 1:09:58 AM

Latest Report: Oct 21, 2014 at 12:00 AM


Visibility: N/A

Pressure: 29.94 "Hg

Humidity: 94%

Dew point: 56 °F

Location of FürstenfeldLocation

Historic Weather in Fürstenfeld — Graph

°F

Fürstenfeld temperature yesterday

Maximum temperature yesterday: 75 °F (at 4:00 PM)
Minimum temperature yesterday: 46 °F (at 7:00 AM)
Average temperature yesterday: 60 °F

Past Weeks' High & Low Weather Summary

 TemperatureHumidityPressure
High79 °F (Oct 10, 1:00 PM)100% (Oct 6, 8:00 AM)30.35 "Hg (Oct 6, 8:00 AM)
Low42 °F (Oct 6, 7:00 AM)44% (Oct 14, 3:00 PM)29.75 "Hg (Oct 15, 4:00 PM)
Average61 °F82%29.99 "Hg
* Reported Oct 5 11:00 PM — Oct 20 11:00 PM, Fürstenfeld, Weather by CustomWeather, © 2014

Note: Actual official high and low records may vary slightly from our data, if they occured in-between our weather recording intervals... More about our weather records

Advertising

Fürstenfeld weather history for previous 24 hours

 ConditionsComfort  
Time TempWeatherWind HumidityBarometerVisibility
11:00 PM
Oct 20
59 °FCool.1 mph93%29.95 "HgN/A
10:00 PM62 °FCool.1 mph86%29.96 "HgN/A
9:00 PM64 °FMild.1 mph83%29.97 "HgN/A
8:00 PM64 °FPassing clouds.1 mph84%29.98 "Hg6 mi
7:00 PM65 °FMild.1 mph84%30.00 "HgN/A
6:00 PM69 °FMild.1 mph74%30.00 "HgN/A
5:00 PM73 °FMild.1 mph64%30.01 "HgN/A
4:00 PM75 °FMild.2 mph60%30.01 "HgN/A
3:00 PM75 °FScattered clouds.2 mph58%30.03 "Hg25 mi
2:00 PM74 °FScattered clouds.2 mph61%30.06 "Hg25 mi
1:00 PM71 °FPartly sunny.1 mph64%30.08 "Hg19 mi
12:00 PM68 °FPartly sunny.1 mph69%30.10 "Hg12 mi
11:00 AM63 °FPartly sunny.1 mph75%30.12 "Hg12 mi
10:00 AM57 °FScattered clouds.1 mph89%30.14 "Hg6 mi
9:00 AM51 °FFog.1 mph98%30.14 "Hg2 mi
8:00 AM47 °FFog.1 mph100%30.14 "Hg1 mi
7:00 AM46 °FFog.1 mph100%30.14 "Hg1 mi
5:00 AM46 °FFog.1 mph100%30.15 "Hg0 mi
4:00 AM47 °FCool.1 mph100%30.16 "HgN/A
3:00 AM47 °FCool.No wind99%30.16 "HgN/A
2:00 AM48 °FCool.1 mph99%30.17 "HgN/A
1:00 AM48 °FCool.No wind97%30.19 "HgN/A
Weather by CustomWeather, © 2014

See weather overviewHow to use our weather pages